National Weather Service Raw Text Product

Displaying AFOS PIL: RWRIA Received: 2018-07-12 09:00 UTC


067 
ASUS43 KDMX 120906
RWRIA 

WEATHER ROUNDUP FOR IOWA
NATIONAL WEATHER SERVICE DES MOINES IA
400 AM CDT THU JUL 12 2018

NOTE: "FAIR" INDICATES FEW OR NO CLOUDS BELOW 12,000 FEET WITH NO
SIGNIFICANT WEATHER AND/OR OBSTRUCTIONS TO VISIBILITY.

* - THESE STATIONS ARE NOT NWS STATIONS...THUS NOT UNDER NWS
QUALITY CONTROL.  THEY ALSO DO NOT REPORT WEATHER SUCH 
AS PRECIPITATION OR FOG.  

IAZ001>003-012>014-020>022-031>034-043>046-121000-
   NORTHWEST IOWA
  
CITY           SKY/WX    TMP DP  RH WIND       PRES   REMARKS
CARROLL *      PTCLDY    75  72  88 S7        30.02F                  
CHEROKEE *     CLEAR     75  73  94 S7        29.98F                  
DENISON *      CLEAR     77  70  78 S8G15     30.03S                  
LE MARS *      CLEAR     75  72  88 S8        29.96F                  
ORANGE CITY *  CLEAR     75  72  88 S5        29.97F                  
SHELDON *      CLEAR     75  73  94 S8        29.96F                  
SIOUX CITY     CLEAR     77  71  82 S7        29.96F                  
STORM LAKE *   CLEAR     73  72  94 S8        30.01F                  
$$
 
IAZ055>058-069>071-079>083-090>094-121000-
   SOUTHWEST IOWA
  
CITY           SKY/WX    TMP DP  RH WIND       PRES   REMARKS
ATLANTIC *     CLEAR     77  70  78 S7        30.03S                  
AUDUBON *      CLEAR     75  70  83 S6        30.05S                  
CLARINDA *     CLEAR     75  70  83 S6        30.06S                  
COUNCIL BLFS * CLEAR     75  70  83 SE8       30.02S                  
CRESTON *      CLEAR     72  66  83 SE9       30.08S                  
HARLAN  *        N/A     75  70  83 S7        30.03S                  
LAMONI         CLEAR     73  62  68 S7        30.08S                  
RED OAK *      CLEAR     75  70  83 S3        30.04R                  
SHENANDOAH *     N/A     73  70  88 SE5       30.03S                  
$$
 
IAZ047>049-059>061-072>074-084-121000-
   CENTRAL IOWA
  
CITY           SKY/WX    TMP DP  RH WIND       PRES   REMARKS
AMES           CLEAR     72  65  78 S6        30.05F                  
ANKENY *       CLEAR     75  63  64 S6        30.06F                  
BOONE *        MOCLDY    73  66  78 S7        30.04F                  
CHARITON *     PTCLDY    72  61  68 S9G15     30.07F                  
DES MOINES     CLEAR     74  63  68 S9        30.05S                  
GRINNELL*      CLEAR     70  63  78 S7        30.08F                  
KNOXVILLE *    CLEAR     72  63  73 S7        30.06S                  
MARSHALLTOWN   CLEAR     71  65  81 S7        30.05F                  
NEWTON *       CLEAR     68  64  88 S6        30.07S                  
PELLA *        CLEAR     72  62  71 S7        30.08S                  
PERRY *        FAIR      72  69  89 MISG      30.04S                  
$$
 
IAZ004>006-015-016-023>025-035-036-121000-
   NORTH CENTRAL IOWA
  
CITY           SKY/WX    TMP DP  RH WIND       PRES   REMARKS
ALGONA *       CLEAR     75  66  73 S12       30.01F                  
CLARION *      MOCLDY    73  66  78 S12       30.03F                  
ESTHERVILLE    CLEAR     74  70  87 S13       29.98F                  
FORT DODGE *   CLEAR     76  66  71 S10G17    30.02F                  
MASON CITY     CLEAR     71  65  81 S10       30.03F                  
FOREST CITY *  FAIR      73  64  73 S12       30.01F                  
WEBSTER CITY * CLEAR     73  66  78 S10       30.01F                  
IOWA FALLS *   FAIR      73  64  73 S10       30.06F                  
$$

IAZ007>011-017>019-026>030-037>042-050>054-066-121000-
   NORTHEAST IOWA
  
CITY           SKY/WX    TMP DP  RH WIND       PRES   REMARKS
CEDAR RAPIDS   FAIR      69  66  90 S6        30.08F                  
CHARLES CITY * FAIR      70  64  83 S10       30.05F                  
CLINTON *      FAIR      67  65  93 SE6       30.11F                  
DECORAH *      CLOUDY    70  66  88 S7        30.07S                  
DUBUQUE        FAIR      68  63  84 S9        30.10F                  
MONTICELLO *   FAIR      68  66  94 SE5       30.09S                  
OELWEIN *      FAIR      68  66  94 S7        30.08F                  
WATERLOO       FAIR      70  65  84 S7        30.05F                  
$$
 
IAZ064-065-067-068-078-121000-
   EAST CENTRAL IOWA
  
CITY           SKY/WX    TMP DP  RH WIND       PRES   REMARKS
DAVENPORT      FAIR      72  64  76 S8        30.12F                  
IOWA CITY      FAIR      69  66  90 SE3       30.10S                  
MUSCATINE *    FAIR      68  66  94 CALM      30.09F                  
QUAD CITIES    FAIR      70  65  84 S7        30.09F                  
$$
 
IAZ062-063-075>077-085>089-095>099-121000-
   SOUTHEAST IOWA
  
CITY           SKY/WX    TMP DP  RH WIND       PRES   REMARKS
BURLINGTON     CLEAR     74  67  78 S13       30.10S                  
FAIRFIELD *    CLEAR     70  64  83 S8        30.08F                  
FORT MADISON * CLEAR     72  70  94 S5        30.11S                  
KEOKUK *       CLEAR     72  68  88 S3        30.10S                  
OSKALOOSA *    FAIR      67  64  89 S6        30.09S                  
CENTERVILLE *    N/A     66  64  94 CALM      30.11S                  
OTTUMWA        CLEAR     72  65  78 S9        30.08S                  
WASHINGTON *   CLEAR     68  68 100 S9        30.09F                  
$$

ABBREVIATIONS USED IN REMARKS
   TC - TEMPERATURES IN CELSIUS
  WCI - WIND CHILL INDEX
   HX - HEAT INDEX
  VSB - VISIBILITY  
$$

  

384 
ASUS43 KDMX 120901
RWRIA 

WEATHER ROUNDUP FOR IOWA
NATIONAL WEATHER SERVICE DES MOINES IA
400 AM CDT THU JUL 12 2018

NOTE: "FAIR" INDICATES FEW OR NO CLOUDS BELOW 12,000 FEET WITH NO
SIGNIFICANT WEATHER AND/OR OBSTRUCTIONS TO VISIBILITY.

* - THESE STATIONS ARE NOT NWS STATIONS...THUS NOT UNDER NWS
QUALITY CONTROL.  THEY ALSO DO NOT REPORT WEATHER SUCH 
AS PRECIPITATION OR FOG.  

IAZ001>003-012>014-020>022-031>034-043>046-121000-
   NORTHWEST IOWA
  
CITY           SKY/WX    TMP DP  RH WIND       PRES   REMARKS
CARROLL *      PTCLDY    75  72  88 S7        30.02F                  
CHEROKEE *     CLEAR     75  73  94 S7        29.98F                  
DENISON *      CLEAR     77  70  78 S8G15     30.03S                  
LE MARS *      CLEAR     75  72  88 S8        29.96F                  
ORANGE CITY *  CLEAR     75  72  88 S5        29.97F                  
SHELDON *      CLEAR     75  73  94 S8        29.96F                  
SIOUX CITY     CLEAR     77  71  82 S7        29.96F                  
STORM LAKE *   CLEAR     73  72  94 S8        30.01F                  
$$
 
IAZ055>058-069>071-079>083-090>094-121000-
   SOUTHWEST IOWA
  
CITY           SKY/WX    TMP DP  RH WIND       PRES   REMARKS
ATLANTIC *     CLEAR     77  70  78 S7        30.03S                  
AUDUBON *      CLEAR     75  70  83 S6        30.05S                  
CLARINDA *     CLEAR     75  70  83 S6        30.06S                  
COUNCIL BLFS * CLEAR     75  70  83 SE8       30.02S                  
CRESTON *      CLEAR     72  66  83 SE9       30.08S                  
HARLAN  *        N/A     75  70  83 S7        30.03S                  
LAMONI         CLEAR     73  62  68 S7        30.08S                  
RED OAK *      CLEAR     75  70  83 S3        30.04R                  
SHENANDOAH *     N/A     73  70  88 SE5       30.03S                  
$$
 
IAZ047>049-059>061-072>074-084-121000-
   CENTRAL IOWA
  
CITY           SKY/WX    TMP DP  RH WIND       PRES   REMARKS
AMES           CLEAR     72  65  78 S6        30.05F                  
ANKENY *       CLEAR     75  63  64 S6        30.06F                  
BOONE *        MOCLDY    73  66  78 S7        30.04F                  
CHARITON *     PTCLDY    72  61  68 S9G15     30.07F                  
DES MOINES     CLEAR     74  63  68 S9        30.05S                  
GRINNELL*      CLEAR     70  63  78 S7        30.08F                  
KNOXVILLE *    CLEAR     72  63  73 S7        30.06S                  
MARSHALLTOWN   CLEAR     71  65  81 S7        30.05F                  
NEWTON *       CLEAR     68  64  88 S6        30.07S                  
PELLA *        CLEAR     72  62  71 S7        30.08S                  
PERRY *        FAIR      72  69  89 MISG      30.04S                  
$$
 
IAZ004>006-015-016-023>025-035-036-121000-
   NORTH CENTRAL IOWA
  
CITY           SKY/WX    TMP DP  RH WIND       PRES   REMARKS
ALGONA *       CLEAR     75  66  73 S12       30.01F                  
CLARION *      MOCLDY    73  66  78 S12       30.03F                  
ESTHERVILLE    CLEAR     74  70  87 S13       29.98F                  
FORT DODGE *   CLEAR     76  66  71 S10G17    30.02F                  
MASON CITY     CLEAR     71  65  81 S10       30.03F                  
FOREST CITY *  FAIR      73  64  73 S12       30.01F                  
IOWA FALLS *   FAIR      73  64  73 S10       30.06F                  
$$

IAZ007>011-017>019-026>030-037>042-050>054-066-121000-
   NORTHEAST IOWA
  
CITY           SKY/WX    TMP DP  RH WIND       PRES   REMARKS
CEDAR RAPIDS   FAIR      69  66  90 S6        30.08F                  
CHARLES CITY * FAIR      70  64  83 S10       30.05F                  
CLINTON *      FAIR      67  65  93 SE6       30.11F                  
DECORAH *      CLOUDY    70  66  88 S7        30.07S                  
DUBUQUE        FAIR      68  63  84 S9        30.10F                  
MONTICELLO *   FAIR      68  66  94 SE5       30.09S                  
OELWEIN *      FAIR      68  66  94 S7        30.08F                  
WATERLOO       FAIR      70  65  84 S7        30.05F                  
$$
 
IAZ064-065-067-068-078-121000-
   EAST CENTRAL IOWA
  
CITY           SKY/WX    TMP DP  RH WIND       PRES   REMARKS
DAVENPORT      FAIR      72  64  76 S8        30.12F                  
IOWA CITY      FAIR      69  66  90 SE3       30.10S                  
MUSCATINE *    FAIR      68  66  94 CALM      30.09F                  
QUAD CITIES    FAIR      70  65  84 S7        30.09F                  
$$
 
IAZ062-063-075>077-085>089-095>099-121000-
   SOUTHEAST IOWA
  
CITY           SKY/WX    TMP DP  RH WIND       PRES   REMARKS
BURLINGTON     CLEAR     74  67  78 S13       30.10S                  
FAIRFIELD *    CLEAR     70  64  83 S8        30.08F                  
FORT MADISON * CLEAR     72  70  94 S5        30.11S                  
KEOKUK *       CLEAR     72  68  88 S3        30.10S                  
OSKALOOSA *    FAIR      67  64  89 S6        30.09S                  
CENTERVILLE *    N/A     66  64  94 CALM      30.11S                  
OTTUMWA        CLEAR     72  65  78 S9        30.08S                  
WASHINGTON *   CLEAR     68  68 100 S9        30.09F                  
$$

ABBREVIATIONS USED IN REMARKS
   TC - TEMPERATURES IN CELSIUS
  WCI - WIND CHILL INDEX
   HX - HEAT INDEX
  VSB - VISIBILITY  
$$